Location: Berg
(47.2344°N, 9.5296°E)
Time: 17:05:04
(UTC+00:00)

Cosmos 1689 Rocket - Pass Details

Date: 24 January 2021
Orbit: 353 x 367 km, 97.5° (Epoch: 01 March)

Event Time Altitude Azimuth Distance (km) Brightness Sun altitude
Exits shadow 17:16:19 15° 104° (ESE) 1,085 3.8 -10.9°
Drops below altitude 10° 17:17:41 10° 133° (SE) 1,328 4.5 -11.2°
Sets 17:20:09 0° 157° (SSE) 2,163 5.8 -11.6°
